ORBCOMM FM40 [-] (33065 NORAD) Tracking and Keplerian Element Data

This shows tracking and keplerian element data for the satellite.

Feedback or suggestion? Click here.




ElementValue
Catalog33065
NameORBCOMM FM40 [-]
Epoch Orbit81681
Epoch Day238.43035358
Epoch Year2023
RAAN223.6602
Inclination48.4428
Eccentricity0.0006982
Argument of Perigee72.6215
Mean Anonmoly58.6792
Mean Motion14.75956971
Decay Rate1.996E-05
L11 33065U 08031F 23238.43035358 .00001996 00000+0 31669-3 0 9990
L22 33065 48.4428 223.6602 0006982 72.6215 58.6792 14.75956971816813



Live tracking and technical data element details for ORBCOMM FM40 [-] (NORAD 33065). ORBCOMM FM40 [-] can be tracked NOW for your location showing map with azimuth and elevation plus other details from your city location.







IsCatalogInMostPopularTable: catalog: 33065, numindb: 282
Update: records affected: 1



GetName: 33065 ORBCOMM FM40 [-]

Hit Count: updated at: Thu, 22 May 2025 04:01:44 GMT